Showing default

PORCUPINE 1, 1272

Orbit data source: Space-Track

PORCUPINE 1, 1272 is a payload satellite owned by NRL (US) in LEO that was launched on Tue, 09 Mar 1965 UTC via a THOR SLV-2 AGENA D launch vehicle from the Air Force Western Test Range (AFWTR). Payload-class satellites include a variety of spacecraft equipped with specific instruments for various scientific and technological missions. These include communications satellites like Starlink; space stations such as the ISS; scientific satellites like the Hubble; Earth observation satellites from companies like Planet Labs, Umbra, and HawkEye 360; GPS; miniature CubeSats for education and research; and military/defense satellites.

Loading next visibility...
Identifier
1272, 1965-016H
Orbit
LEO
Last TLE update
11 hours ago
Origin
Manufacturer
NRL
Mission
Defense Calibration
Bus & Motor
NRL 9", Unknown motor
Mass
4 kg wet, 4 kg dry
Launch date (UTC)
1965-03-09 (60 years ago)
Launch vehicle
THOR SLV-2 AGENA D
Launch site
Air Force Western Test Range (AFWTR)
Object type
Payload
Rocket body
Debris
Shape & HBR
Sphere + 12 Rod, 15.2 m
Radar Cross Section
0.031 m², Medium (>0.1 m² and < 1m²)

Expand to show TLE details & history

TLE from 11 hours ago
0 PORCUPINE 1
1 01272U 65016H   25125.86733350  .00000028  00000-0  59956-4 0  9998
2 01272  70.0815  34.9206 0024534 293.9405  65.9130 13.94478980 59594
Epoch: 2025-05-05T20:48Z
Definitive object data (Epoch: 2025-05-05T20:48:57.614Z)
Latitude
-0.00012°
Longitude
-141.29423°
Altitude
908.028 km
Speed
7.402 km/s
True Right ascension
02h 19m 40s
True Declination
0° 00' 00"
Sunlit
Object was in daylight at TLE epoch
Visualization TLE readout
Latitude
56.23538°
Longitude
-109.60637°
Altitude
932.901 km
Speed
7.385 km/s
Apparent Right ascension
03h 52m 07s
Apparent Declination
12° 34' 60"
Sunlit
Object is in daylight
Visualization observer readout
Local Sidereal Time
15:23:39
Azimuth
351.279° N
Elevation
-37.085°
Doppler factor
1
Orbital elements
Apogee altitude
928.896 km
Perigee altitude
893.13 km
Semi-major axis
7,289.15 km
Eccentricity
0.0024534
Inclination
70.0815°
RAAN
34.9206°
Arg. of periapsis
293.9405°
True anomaly
66.16998°
Mean anomaly
65.913°
Eccentric anomaly
66.04146°
Mean motion
3.48761 °/min
BSTAR
0.000059956
Orbital period
103.22 mins
Loading maneuver chart data...
Loading SW <> Apogee altitude chart data...
Loading historical data...
Loading historical data...
Loading historical data...
Loading historical data...
Loading historical data...
Loading historical data...
Loading historical data...

PORCUPINE 1 Visibility forecast

Observer location: undefined°, undefined°

Span
Click to sort rows by Start time (UTC) header in descending order
Start Az.
Max El. time (UTC)
Max El. Az.
Max El.
End time (UTC)
End Az.
4 mins2025-05-06 17:37:28.852Z115.032° SE2025-05-06 17:39:28.852Z94.716° ESE12.028°2025-05-06 17:41:28.852Z74.948° E
10 mins2025-05-06 19:19:28.852Z203.621° SW2025-05-06 19:24:28.852Z15.624° NNE44.497°2025-05-06 19:29:28.852Z24.015° NE
5 mins2025-05-06 21:08:28.852Z288.908° WNW2025-05-06 21:10:28.852Z310.959° NW15.438°2025-05-06 21:13:28.852Z343.437° N
10 mins2025-05-07 04:22:28.852Z349.513° N2025-05-07 04:26:28.852Z48.198° ENE38.677°2025-05-07 04:32:28.852Z137.729° SSE
7 mins2025-05-07 06:09:28.852Z292.226° WNW2025-05-07 06:12:28.852Z253.339° W21.157°2025-05-07 06:16:28.852Z210.431° SW
|